Regional Weather Roundup
Issued by NWS

Home | Current Version | Previous Version | Graphics & Text | Print | Product List | Glossary On
Versions: 1 2 3 4 5 6 7 8 9 10 11 12 13 14 15 16 17 18 19 20 21 22 23 24 25 26 27 28 29 30 31 32 33 34 35 36 37 38 39 40 41 42 43 44 45 46 47 48 49 50
000
ASUS45 KABQ 260001
RWRNM
NEW MEXICO REGIONAL WEATHER ROUNDUP
NATIONAL WEATHER SERVICE ALBUQUERQUE NM
600 PM MDT MON MAY 25 2015

NOTE: "FAIR" MEANS FEW OR NO CLOUDS BELOW 12,000 FEET AGL WITH NO
       SIGNIFICANT WEATHER OR OBSTRUCTIONS TO VISION.

      THIS PRODUCT IS RELEASED AS TWO VERSIONS.  ONE VERSION NEAR
      THE TOP OF THE HOUR CONTAINING PRELIMINARY DATA FROM ALBUQUERQUE
      AND OTHER STATIONS.  A FINAL VERSION WITH ADDITIONAL DATA IS
      ISSUED ABOUT 10 MINUTES AFTER THE HOUR.

NMZ501-503-504-510>518-260100-
NORTHWEST PLATEAU/NORTHCENTRAL MOUNTAINS

CITY           SKY/WX    TMP DP  RH WIND       PRES   REMARKS
FARMINGTON     SUNNY     56  42  59 N12       30.00R
6HR MIN TEMP:  56; 6HR MAX TEMP:  67; 6HR PCP: TRACE;

SANTA FE       CLOUDY    62  37  39 W14       29.98R
6HR MIN TEMP:  56; 6HR MAX TEMP:  67;

TAOS           PTSUNNY   61  34  36 NW16G23   30.01S

$$
NMZ402-403-502-505>509-260100-
WESTCENTRAL MOUNTAINS/SOUTHWEST MOUNTAINS

CITY           SKY/WX    TMP DP  RH WIND       PRES   REMARKS
GALLUP         PTSUNNY   52  45  77 S9        30.10S
6HR MIN TEMP:  48; 6HR MAX TEMP:  62; 6HR PCP:  0.15;

GRANTS         CLOUDY    61  36  39 NW20G26   30.09R
SILVER CITY      N/A     73  23  15 W22       30.02S

$$
NMZ407-409-411-412-260100-
SOUTHERN DESERTS

CITY           SKY/WX    TMP DP  RH WIND       PRES   REMARKS
LORDSBURG      FAIR      79  23  12 W16G24    29.95S
DEMING         SUNNY     79  24  13 W18G30    29.94S
6HR MIN TEMP:  75; 6HR MAX TEMP:  82;

ALAMOGORDO     MOSUNNY   79  27  14 SW10      29.89F
T OR C         CLOUDY    73  36  25 N10       29.93S
6HR MIN TEMP:  71; 6HR MAX TEMP:  79; 6HR PCP: TRACE;


$$
NMZ519>523-260100-
CENTRAL VALLEYS/CENTRAL HIGHLANDS

CITY           SKY/WX    TMP DP  RH WIND       PRES   REMARKS
ALBUQUERQUE    CLOUDY    60  46  59 NW18G29   30.00R THUNDER
6HR MIN TEMP:  57; 6HR MAX TEMP:  70; 6HR PCP:  0.13;

DOUBLE EAGLE   PTSUNNY   54  46  76 W22G29    30.02R
CLINES CORNERS CLOUDY    59  38  45 SW17      30.00F
6HR MIN TEMP:  58; 6HR MAX TEMP:  67;

BELEN          CLOUDY    64  47  53 N15G21    30.00R THUNDER
6HR MIN TEMP:  60; 6HR MAX TEMP:  73; 6HR PCP:  0.16;

SOCORRO        NOT AVBL

$$
NMZ524>526-539-540-260100-
SOUTHCENTRAL MOUNTAINS

CITY           SKY/WX    TMP DP  RH WIND       PRES   REMARKS
RUIDOSO        NOT AVBL

$$
NMZ527>531-260100-
NORTHEAST HIGHLANDS/NORTHEAST PLAINS

CITY           SKY/WX    TMP DP  RH WIND       PRES   REMARKS
LAS VEGAS      PTSUNNY   63  32  31 SW7       29.95S
6HR MIN TEMP:  60; 6HR MAX TEMP:  66; 6HR PCP: TRACE;

RATON          LGT RAIN  59  43  55 NE6       29.96S
6HR MIN TEMP:  54; 6HR MAX TEMP:  68; 6HR PCP:  0.01;

CLAYTON        CLOUDY    64  45  49 NW16G22   29.89R
6HR MIN TEMP:  63; 6HR MAX TEMP:  72;


$$
NMZ532>537-260100-
EASTCENTRAL PLAINS

CITY           SKY/WX    TMP DP  RH WIND       PRES   REMARKS
TUCUMCARI      PTSUNNY   79  35  20 W17G23    29.78F
6HR MIN TEMP:  73; 6HR MAX TEMP:  81;

CANNON AFB     NOT AVBL
CLOVIS AIRPORT SUNNY     75  43  31 W16         N/A

$$
NMZ028-029-538-260100-
SOUTHEAST PLAINS

CITY           SKY/WX    TMP DP  RH WIND       PRES   REMARKS
ROSWELL        SUNNY     83  34  17 VRB5      29.82F
6HR MIN TEMP:  77; 6HR MAX TEMP:  84;

ARTESIA        SUNNY     84  32  15 SW6       29.82F
CARLSBAD       SUNNY     86  32  14 W13G24    29.81F
6HR MIN TEMP:  80; 6HR MAX TEMP:  87;

HOBBS          SUNNY     79  39  24 S9        29.86F


$$



USA.gov is the U.S. government's official web portal to all federal, state and local government web resources and services.